DELTA 1 DEB, 13530

Orbit data source: Space-Track

DELTA 1 DEB, 13530 is space debris in SSO originally from a launch on Thu, 29 Jul 1976 UTC launched from the Air Force Western Test Range (AFWTR). Debris objects in space refer to the collection of defunct objects orbiting the Earth. Examples of debris include non-operational satellites, rocket bodies, and fragments generated from explosions, collisions, or faulty payload assembly.

Loading next visibility...
Identifier
13530, 1976-077EC
Orbit
SSO
Country
Flag of USUS
Related business
Manufacturer
Unknown
Mission
Spacecraft
Bus & Motor
Unknown
Mass
Unknown
Launch date (UTC)
1976-07-29 (50 years ago)
Launch vehicle
Unknown
Launch site
Air Force Western Test Range (AFWTR)
Object type
Payload
Rocket body
Debris
Shape & HBR
Unknown shape, 0.1 m
Radar Cross Section
Small (<0.1 m²)

Expand to show TLE details & history
Last TLE update: 23 hours ago

TLE from 23 hours ago
0 DELTA 1 DEB
1 13530U 76077EC  26127.25059279  .00000258  00000-0  22956-2 0  9997
2 13530 102.3349 234.4656 0122970  80.8992 308.5817 12.37234903 57382
Epoch: 2026-05-07T06:00Z
TLE epoch observation values (Epoch: 2026-05-07T06:00:51.217Z)
Latitude
27.69769°
Longitude
-87.40645°
Altitude
1,461.587 km
Speed
7.161 km/s
True Right ascension
15h 11m 37s
True Declination
27° 34' 09"
Sunlit
Object was in full shadow at epoch
Visualization orbit readout
Latitude
Unknown
Longitude
Unknown
Altitude
Unknown
Speed
Unknown
Apparent Right ascension
Unknown
Apparent Declination
Unknown
Sunlit
N/A
Visualization observer readout
Local Sidereal Time
13:25:18
Azimuth
Unknown
Elevation
Unknown
Doppler factor
Unknown
Orbital elements
Apogee altitude
1,613.018 km
Perigee altitude
1,418.871 km
Semi-major axis
7,894.081 km
Eccentricity
0.0123
Inclination
102.3349°
RAAN
234.4656°
Arg. of periapsis
80.8992°
True anomaly
307.46957°
Mean anomaly
308.5817°
Eccentric anomaly
308.0267°
Mean motion
3.0945 °/min
Orbital period
116.34 mins
BSTAR
0.0022956
Loading maneuver chart data...
Computing Atmospheric mass density...
Loading historical data...
Loading historical data...
Loading historical data...
Loading historical data...
Loading historical data...
Loading historical data...
Loading historical data...

Documentation

Showing up to 5 results
|